Time,TemperatureF,DewpointF,PressureIn,WindDirection,WindDirectionDegrees,WindSpeedMPH,WindSpeedGustMPH,Humidity,HourlyPrecipIn,Conditions,Clouds,dailyrainin,SolarRadiationWatts/m^2,SoftwareType,DateUTC
2013-01-07 00:12:00,67.0,31.0,-100.00,East,93,10.0,30.0,26,0.00,,,0.00,783.000000,,2013-01-07 00:12:00,
2013-01-07 00:22:00,67.0,31.0,-100.00,East,93,10.0,30.0,26,0.00,,,0.00,783.000000,,2013-01-07 00:22:00,
2013-01-07 00:32:00,67.0,31.0,-100.00,East,93,10.0,30.0,26,0.00,,,0.00,783.000000,,2013-01-07 00:32:00,
2013-01-07 00:42:00,67.0,31.0,-100.00,East,93,10.0,30.0,26,0.00,,,0.00,783.000000,,2013-01-07 00:42:00,
2013-01-07 01:12:00,62.0,47.0,-100.00,NW,304,7.0,14.0,59,0.00,,,0.00,697.000000,,2013-01-07 01:12:00,
2013-01-07 01:22:00,62.0,47.0,-100.00,NW,304,7.0,14.0,59,0.00,,,0.00,697.000000,,2013-01-07 01:22:00,
2013-01-07 01:32:00,62.0,47.0,-100.00,NW,304,7.0,14.0,59,0.00,,,0.00,697.000000,,2013-01-07 01:32:00,
2013-01-07 01:42:00,62.0,47.0,-100.00,NW,304,7.0,14.0,59,0.00,,,0.00,697.000000,,2013-01-07 01:42:00,
2013-01-07 02:12:00,64.0,50.0,-100.00,NW,307,6.0,11.0,60,0.00,,,0.00,551.000000,,2013-01-07 02:12:00,
2013-01-07 02:22:00,64.0,50.0,-100.00,NW,307,6.0,11.0,60,0.00,,,0.00,551.000000,,2013-01-07 02:22:00,
2013-01-07 02:32:00,64.0,50.0,-100.00,NW,307,6.0,11.0,60,0.00,,,0.00,551.000000,,2013-01-07 02:32:00,
2013-01-07 02:42:00,64.0,50.0,-100.00,NW,307,6.0,11.0,60,0.00,,,0.00,551.000000,,2013-01-07 02:42:00,
2013-01-07 03:12:00,65.0,47.0,-100.00,WSW,257,3.0,9.0,53,0.00,,,0.00,363.000000,,2013-01-07 03:12:00,
2013-01-07 03:22:00,65.0,47.0,-100.00,WSW,257,3.0,9.0,53,0.00,,,0.00,363.000000,,2013-01-07 03:22:00,
2013-01-07 03:32:00,65.0,47.0,-100.00,WSW,257,3.0,9.0,53,0.00,,,0.00,363.000000,,2013-01-07 03:32:00,
2013-01-07 03:42:00,65.0,47.0,-100.00,WSW,257,3.0,9.0,53,0.00,,,0.00,363.000000,,2013-01-07 03:42:00,
2013-01-07 04:12:00,63.0,33.0,-100.00,North,3,5.0,17.0,33,0.00,,,-99.99,148.000000,,2013-01-07 04:12:00,
2013-01-07 04:22:00,63.0,33.0,-100.00,North,3,5.0,17.0,33,0.00,,,-99.99,148.000000,,2013-01-07 04:22:00,
2013-01-07 04:32:00,63.0,33.0,-100.00,North,3,5.0,17.0,33,0.00,,,-99.99,148.000000,,2013-01-07 04:32:00,
2013-01-07 04:42:00,63.0,33.0,-100.00,North,3,5.0,17.0,33,0.00,,,-99.99,148.000000,,2013-01-07 04:42:00,
2013-01-07 05:12:00,56.0,24.0,-100.00,East,89,3.0,17.0,29,0.00,,,0.00,5.000000,,2013-01-07 05:12:00,
2013-01-07 05:22:00,56.0,24.0,-100.00,East,89,3.0,17.0,29,0.00,,,0.00,5.000000,,2013-01-07 05:22:00,
2013-01-07 05:32:00,56.0,24.0,-100.00,East,89,3.0,17.0,29,0.00,,,0.00,5.000000,,2013-01-07 05:32:00,
2013-01-07 05:42:00,56.0,24.0,-100.00,East,89,3.0,17.0,29,0.00,,,0.00,5.000000,,2013-01-07 05:42:00,
2013-01-07 06:12:00,55.0,20.0,-100.00,ENE,65,4.0,8.0,25,0.00,,,0.00,0.000000,,2013-01-07 06:12:00,
2013-01-07 06:22:00,55.0,20.0,-100.00,ENE,65,4.0,8.0,25,0.00,,,0.00,0.000000,,2013-01-07 06:22:00,
2013-01-07 06:32:00,55.0,20.0,-100.00,ENE,65,4.0,8.0,25,0.00,,,0.00,0.000000,,2013-01-07 06:32:00,
2013-01-07 06:42:00,55.0,20.0,-100.00,ENE,65,4.0,8.0,25,0.00,,,0.00,0.000000,,2013-01-07 06:42:00,
2013-01-07 07:12:00,53.0,25.0,-100.00,NE,55,3.0,8.0,34,0.00,,,0.00,0.000000,,2013-01-07 07:12:00,
2013-01-07 07:22:00,53.0,25.0,-100.00,NE,55,3.0,8.0,34,0.00,,,0.00,0.000000,,2013-01-07 07:22:00,
2013-01-07 07:32:00,53.0,25.0,-100.00,NE,55,3.0,8.0,34,0.00,,,0.00,0.000000,,2013-01-07 07:32:00,
2013-01-07 07:42:00,53.0,25.0,-100.00,NE,55,3.0,8.0,34,0.00,,,0.00,0.000000,,2013-01-07 07:42:00,
2013-01-07 08:12:00,51.0,25.0,-100.00,East,100,4.0,9.0,36,0.00,,,0.00,0.000000,,2013-01-07 08:12:00,
2013-01-07 08:22:00,51.0,25.0,-100.00,East,100,4.0,9.0,36,0.00,,,0.00,0.000000,,2013-01-07 08:22:00,
2013-01-07 08:32:00,51.0,25.0,-100.00,East,100,4.0,9.0,36,0.00,,,0.00,0.000000,,2013-01-07 08:32:00,
2013-01-07 08:42:00,51.0,25.0,-100.00,East,100,4.0,9.0,36,0.00,,,0.00,0.000000,,2013-01-07 08:42:00,
2013-01-07 09:02:00,50.0,30.0,-100.00,East,95,5.0,9.0,46,0.00,,,0.00,0.000000,,2013-01-07 09:02:00,
2013-01-07 09:12:00,50.0,30.0,-100.00,East,95,5.0,9.0,46,0.00,,,0.00,0.000000,,2013-01-07 09:12:00,
2013-01-07 09:22:00,50.0,30.0,-100.00,East,95,5.0,9.0,46,0.00,,,0.00,0.000000,,2013-01-07 09:22:00,
2013-01-07 09:32:00,50.0,30.0,-100.00,East,95,5.0,9.0,46,0.00,,,0.00,0.000000,,2013-01-07 09:32:00,
2013-01-07 09:42:00,50.0,30.0,-100.00,East,95,5.0,9.0,46,0.00,,,0.00,0.000000,,2013-01-07 09:42:00,
2013-01-07 10:02:00,48.0,37.0,-100.00,NNE,26,2.0,7.0,66,0.00,,,0.00,0.000000,,2013-01-07 10:02:00,
2013-01-07 10:12:00,48.0,37.0,-100.00,NNE,26,2.0,7.0,66,0.00,,,0.00,0.000000,,2013-01-07 10:12:00,
2013-01-07 10:22:00,48.0,37.0,-100.00,NNE,26,2.0,7.0,66,0.00,,,0.00,0.000000,,2013-01-07 10:22:00,
2013-01-07 10:32:00,48.0,37.0,-100.00,NNE,26,2.0,7.0,66,0.00,,,0.00,0.000000,,2013-01-07 10:32:00,
2013-01-07 10:42:00,48.0,37.0,-100.00,NNE,26,2.0,7.0,66,0.00,,,0.00,0.000000,,2013-01-07 10:42:00,
2013-01-07 11:12:00,49.0,36.0,-100.00,SE,138,4.0,8.0,60,0.00,,,-99.99,0.000000,,2013-01-07 11:12:00,
2013-01-07 11:22:00,49.0,36.0,-100.00,SE,138,4.0,8.0,60,0.00,,,-99.99,0.000000,,2013-01-07 11:22:00,
2013-01-07 11:32:00,49.0,36.0,-100.00,SE,138,4.0,8.0,60,0.00,,,-99.99,0.000000,,2013-01-07 11:32:00,
2013-01-07 11:42:00,49.0,36.0,-100.00,SE,138,4.0,8.0,60,0.00,,,-99.99,0.000000,,2013-01-07 11:42:00,
2013-01-07 12:12:00,49.0,35.0,-100.00,NE,54,4.0,7.0,59,0.00,,,0.00,0.000000,,2013-01-07 12:12:00,
2013-01-07 12:22:00,49.0,35.0,-100.00,NE,54,4.0,7.0,59,0.00,,,0.00,0.000000,,2013-01-07 12:22:00,
2013-01-07 12:32:00,49.0,35.0,-100.00,NE,54,4.0,7.0,59,0.00,,,0.00,0.000000,,2013-01-07 12:32:00,
2013-01-07 12:42:00,49.0,35.0,-100.00,NE,54,4.0,7.0,59,0.00,,,0.00,0.000000,,2013-01-07 12:42:00,
2013-01-07 13:12:00,50.0,34.0,-100.00,ENE,67,7.0,10.0,54,0.00,,,0.00,0.000000,,2013-01-07 13:12:00,
2013-01-07 13:22:00,50.0,34.0,-100.00,ENE,67,7.0,10.0,54,0.00,,,0.00,0.000000,,2013-01-07 13:22:00,
2013-01-07 13:33:00,50.0,34.0,-100.00,ENE,67,7.0,10.0,54,0.00,,,0.00,0.000000,,2013-01-07 13:33:00,
2013-01-07 13:42:00,50.0,34.0,-100.00,ENE,67,7.0,10.0,54,0.00,,,0.00,0.000000,,2013-01-07 13:42:00,
2013-01-07 14:12:00,55.0,27.0,-100.00,East,96,3.0,9.0,34,0.00,,,0.00,0.000000,,2013-01-07 14:12:00,
2013-01-07 14:22:00,55.0,27.0,-100.00,East,96,3.0,9.0,34,0.00,,,0.00,0.000000,,2013-01-07 14:22:00,
2013-01-07 14:33:00,55.0,27.0,-100.00,East,96,3.0,9.0,34,0.00,,,0.00,0.000000,,2013-01-07 14:33:00,
2013-01-07 14:42:00,55.0,27.0,-100.00,East,96,3.0,9.0,34,0.00,,,0.00,0.000000,,2013-01-07 14:42:00,
2013-01-07 15:12:00,52.0,30.0,-100.00,NE,45,5.0,8.0,43,0.00,,,0.00,0.000000,,2013-01-07 15:12:00,
2013-01-07 15:22:00,52.0,30.0,-100.00,NE,45,5.0,8.0,43,0.00,,,0.00,0.000000,,2013-01-07 15:22:00,
2013-01-07 15:33:00,52.0,30.0,-100.00,NE,45,5.0,8.0,43,0.00,,,0.00,0.000000,,2013-01-07 15:33:00,
2013-01-07 15:42:00,52.0,30.0,-100.00,NE,45,5.0,8.0,43,0.00,,,0.00,0.000000,,2013-01-07 15:42:00,
2013-01-07 16:12:00,53.0,33.0,-100.00,ENE,69,6.0,13.0,46,0.00,,,-99.99,0.000000,,2013-01-07 16:12:00,
2013-01-07 16:22:00,53.0,33.0,-100.00,ENE,69,6.0,13.0,46,0.00,,,-99.99,0.000000,,2013-01-07 16:22:00,
2013-01-07 16:33:00,53.0,33.0,-100.00,ENE,69,6.0,13.0,46,0.00,,,-99.99,0.000000,,2013-01-07 16:33:00,
2013-01-07 16:42:00,53.0,33.0,-100.00,ENE,69,6.0,13.0,46,0.00,,,-99.99,0.000000,,2013-01-07 16:42:00,
2013-01-07 17:12:00,54.0,26.0,-100.00,ENE,72,4.0,10.0,33,0.00,,,-99.99,0.000000,,2013-01-07 17:12:00,
2013-01-07 17:22:00,54.0,26.0,-100.00,ENE,72,4.0,10.0,33,0.00,,,-99.99,0.000000,,2013-01-07 17:22:00,
2013-01-07 17:32:00,54.0,26.0,-100.00,ENE,72,4.0,10.0,33,0.00,,,-99.99,0.000000,,2013-01-07 17:32:00,
2013-01-07 17:42:00,54.0,26.0,-100.00,ENE,72,4.0,10.0,33,0.00,,,-99.99,0.000000,,2013-01-07 17:42:00,
2013-01-07 18:12:00,52.0,31.0,-100.00,ENE,75,4.0,10.0,44,0.00,,,0.00,8.000000,,2013-01-07 18:12:00,
2013-01-07 18:23:00,52.0,31.0,-100.00,ENE,75,4.0,10.0,44,0.00,,,0.00,8.000000,,2013-01-07 18:23:00,
2013-01-07 18:32:00,52.0,31.0,-100.00,ENE,75,4.0,10.0,44,0.00,,,0.00,8.000000,,2013-01-07 18:32:00,
2013-01-07 18:42:00,52.0,31.0,-100.00,ENE,75,4.0,10.0,44,0.00,,,0.00,8.000000,,2013-01-07 18:42:00,
2013-01-07 19:12:00,55.0,38.0,-100.00,ESE,116,3.0,10.0,52,0.00,,,0.00,78.000000,,2013-01-07 19:12:00,
2013-01-07 19:22:00,55.0,38.0,-100.00,ESE,116,3.0,10.0,52,0.00,,,0.00,78.000000,,2013-01-07 19:22:00,
2013-01-07 19:33:00,55.0,38.0,-100.00,ESE,116,3.0,10.0,52,0.00,,,0.00,78.000000,,2013-01-07 19:33:00,
2013-01-07 19:42:00,55.0,38.0,-100.00,ESE,116,3.0,10.0,52,0.00,,,0.00,78.000000,,2013-01-07 19:42:00,
2013-01-07 20:12:00,57.0,47.0,-100.00,WNW,303,4.0,8.0,69,0.00,,,0.00,414.000000,,2013-01-07 20:12:00,
2013-01-07 20:22:00,57.0,47.0,-100.00,WNW,303,4.0,8.0,69,0.00,,,0.00,414.000000,,2013-01-07 20:22:00,
2013-01-07 20:33:00,57.0,47.0,-100.00,WNW,303,4.0,8.0,69,0.00,,,0.00,414.000000,,2013-01-07 20:33:00,
2013-01-07 20:42:00,57.0,47.0,-100.00,WNW,303,4.0,8.0,69,0.00,,,0.00,414.000000,,2013-01-07 20:42:00,
2013-01-07 21:12:00,57.0,50.0,-100.00,WNW,302,5.0,9.0,78,0.00,,,0.00,604.000000,,2013-01-07 21:12:00,
2013-01-07 21:22:00,57.0,50.0,-100.00,WNW,302,5.0,9.0,78,0.00,,,0.00,604.000000,,2013-01-07 21:22:00,
2013-01-07 21:32:00,57.0,50.0,-100.00,WNW,302,5.0,9.0,78,0.00,,,0.00,604.000000,,2013-01-07 21:32:00,
2013-01-07 21:42:00,57.0,50.0,-100.00,WNW,302,5.0,9.0,78,0.00,,,0.00,604.000000,,2013-01-07 21:42:00,
2013-01-07 22:12:00,57.0,52.0,-100.00,NW,317,6.0,12.0,83,0.00,,,0.00,668.000000,,2013-01-07 22:12:00,
2013-01-07 22:22:00,57.0,52.0,-100.00,NW,317,6.0,12.0,83,0.00,,,0.00,668.000000,,2013-01-07 22:22:00,
2013-01-07 22:33:00,57.0,52.0,-100.00,NW,317,6.0,12.0,83,0.00,,,0.00,668.000000,,2013-01-07 22:33:00,
2013-01-07 22:42:00,57.0,52.0,-100.00,NW,317,6.0,12.0,83,0.00,,,0.00,668.000000,,2013-01-07 22:42:00,
2013-01-07 23:12:00,59.0,53.0,-100.00,NW,311,6.0,11.0,80,0.00,,,0.00,589.000000,,2013-01-07 23:12:00,
2013-01-07 23:22:00,59.0,53.0,-100.00,NW,311,6.0,11.0,80,0.00,,,0.00,589.000000,,2013-01-07 23:22:00,
2013-01-07 23:32:00,59.0,53.0,-100.00,NW,311,6.0,11.0,80,0.00,,,0.00,589.000000,,2013-01-07 23:32:00,
2013-01-07 23:42:00,59.0,53.0,-100.00,NW,311,6.0,11.0,80,0.00,,,0.00,589.000000,,2013-01-07 23:42:00,